This is the latest recevied weather packets stored in our database for station/object DL6MAA-11. If no packets are shown the sender has not sent any weather packets the latest 10 day(s).
| Time | Temp. | Humidity | Pressure | Rain* | Wind** | Luminosity | Snow |
|---|---|---|---|---|---|---|---|
| 1777926427 | 14.44° C | 70% | 1010.3 hPa | 0.25 mm | - | 0 W/m² | - |
| 1777926130 | 14.44° C | 70% | 1010.3 hPa | 0.25 mm | - | 0 W/m² | - |
| 1777925816 | 15° C | 71% | 1010.3 hPa | 0.25 mm | - | 0 W/m² | - |
| 1777925517 | 15° C | 70% | 1009.9 hPa | 0.25 mm | - | 0 W/m² | - |
| 1777925219 | 15° C | 70% | 1009.9 hPa | 0.25 mm | - | 0 W/m² | - |
| 1777924924 | 15° C | 69% | 1009.9 hPa | 0.25 mm | - | 0 W/m² | - |
| 1777924633 | 15° C | 69% | 1010.5 hPa | 0.25 mm | - | 0 W/m² | - |
| 1777924314 | 15° C | 69% | 1010.5 hPa | 0.25 mm | - | 0 W/m² | - |
| 1777924032 | 15° C | 68% | 1010.5 hPa | 0.25 mm | - | 0 W/m² | - |
| 1777923717 | 15.56° C | 67% | 1010.7 hPa | 0.25 mm | - | 0 W/m² | - |
| 1777923418 | 15.56° C | 67% | 1010.7 hPa | 0.25 mm | - | 0 W/m² | - |
| 1777923124 | 15.56° C | 67% | 1010.7 hPa | 0.25 mm | - | 0 W/m² | - |
| 1777922824 | 16.11° C | 67% | 1010.6 hPa | 0.25 mm | - | 0 W/m² | - |
| 1777922516 | 16.11° C | 66% | 1010.6 hPa | 0.25 mm | - | 0 W/m² | - |
| 1777922222 | 16.67° C | 66% | 1010.6 hPa | 0 mm | - | 0 W/m² | - |
| 1777921927 | 16.67° C | 65% | 1011.1 hPa | 0 mm | - | 0 W/m² | - |
| 1777921617 | 17.22° C | 63% | 1011.1 hPa | 0 mm | - | 0 W/m² | - |
| 1777921316 | 17.22° C | 63% | 1011.1 hPa | 0 mm | - | 0 W/m² | - |
| 1777921022 | 17.78° C | 62% | 1010.6 hPa | 0 mm | - | 0 W/m² | - |
| 1777920712 | 17.78° C | 60% | 1010.6 hPa | 0 mm | - | 0 W/m² | - |
| 1777920419 | 18.33° C | 60% | 1010.6 hPa | 0 mm | - | 0 W/m² | - |
| 1777920124 | 18.33° C | 58% | 1009.7 hPa | 0 mm | - | 0 W/m² | - |
| 1777919833 | 18.89° C | 56% | 1009.7 hPa | 0 mm | - | 0 W/m² | - |
| 1777919523 | 19.44° C | 53% | 1009.7 hPa | 0 mm | - | 0 W/m² | - |
| 1777919216 | 20° C | 52% | 1009.3 hPa | 0 mm | - | 0 W/m² | - |
* Rain since midnight (hover to see other rain measurements)
** Current wind speed in m/s (hover to see current wind gust speed)